Time,TemperatureF,DewpointF,PressureIn,WindDirection,WindDirectionDegrees,WindSpeedMPH,WindSpeedGustMPH,Humidity,HourlyPrecipIn,Conditions,Clouds,dailyrainin,SolarRadiationWatts/m^2,SoftwareType,DateUTC
2013-07-06 00:02:00,82.0,64.0,29.97,North,6,2.0,-999.0,54,-99.99,,,-99.99,0.000000,,2013-07-06 05:02:00,
2013-07-06 00:12:00,82.0,64.0,29.98,North,6,1.0,-999.0,54,-99.99,,,-99.99,0.000000,,2013-07-06 05:12:00,
2013-07-06 00:22:00,82.0,64.0,29.98,North,3,1.0,-999.0,54,-99.99,,,-99.99,0.000000,,2013-07-06 05:22:00,
2013-07-06 00:33:00,81.0,63.0,29.98,North,2,1.0,-999.0,55,-99.99,,,-99.99,0.000000,,2013-07-06 05:33:00,
2013-07-06 00:42:00,81.0,63.0,29.98,North,2,0.0,-999.0,55,-99.99,,,-99.99,0.000000,,2013-07-06 05:42:00,
2013-07-06 00:53:00,81.0,64.0,29.98,North,6,0.0,-999.0,56,-99.99,,,-99.99,0.000000,,2013-07-06 05:53:00,
2013-07-06 01:01:00,80.0,63.0,29.98,North,5,0.0,-999.0,56,-99.99,,,-99.99,0.000000,,2013-07-06 06:01:00,
2013-07-06 01:12:00,80.0,63.0,29.98,North,6,0.0,-999.0,56,-99.99,,,-99.99,0.000000,,2013-07-06 06:12:00,
2013-07-06 01:22:00,80.0,63.0,29.98,North,5,0.0,-999.0,57,-99.99,,,-99.99,0.000000,,2013-07-06 06:22:00,
2013-07-06 01:34:00,80.0,63.0,29.98,North,6,0.0,-999.0,57,-99.99,,,-99.99,0.000000,,2013-07-06 06:34:00,
2013-07-06 01:43:00,79.0,62.0,29.98,North,5,0.0,-999.0,57,-99.99,,,-99.99,0.000000,,2013-07-06 06:43:00,
2013-07-06 01:53:00,79.0,63.0,29.98,North,10,0.0,-999.0,58,-99.99,,,-99.99,0.000000,,2013-07-06 06:53:00,
2013-07-06 02:02:00,79.0,63.0,29.98,NNE,13,0.0,-999.0,58,-99.99,,,-99.99,0.000000,,2013-07-06 07:02:00,
2013-07-06 02:12:00,78.0,62.0,29.98,NNE,13,0.0,-999.0,58,-99.99,,,-99.99,0.000000,,2013-07-06 07:12:00,
2013-07-06 02:22:00,78.0,62.0,29.98,North,11,0.0,-999.0,58,-99.99,,,-99.99,0.000000,,2013-07-06 07:22:00,
2013-07-06 02:33:00,78.0,62.0,29.98,NNE,13,0.0,-999.0,59,-99.99,,,-99.99,0.000000,,2013-07-06 07:33:00,
2013-07-06 02:43:00,78.0,62.0,29.98,NNE,13,0.0,-999.0,59,-99.99,,,-99.99,0.000000,,2013-07-06 07:43:00,
2013-07-06 02:52:00,78.0,62.0,29.98,North,11,0.0,-999.0,59,-99.99,,,-99.99,0.000000,,2013-07-06 07:52:00,
2013-07-06 03:02:00,78.0,62.0,29.98,NNE,12,0.0,-999.0,59,-99.99,,,-99.99,0.000000,,2013-07-06 08:02:00,
2013-07-06 03:11:00,78.0,63.0,29.98,NNE,13,0.0,-999.0,60,-99.99,,,-99.99,0.000000,,2013-07-06 08:11:00,
2013-07-06 03:21:00,77.0,62.0,29.98,North,11,0.0,-999.0,60,-99.99,,,-99.99,0.000000,,2013-07-06 08:21:00,
2013-07-06 03:33:00,77.0,62.0,29.98,North,11,0.0,-999.0,60,-99.99,,,-99.99,0.000000,,2013-07-06 08:33:00,
2013-07-06 03:43:00,77.0,62.0,29.98,NNE,13,0.0,-999.0,60,-99.99,,,-99.99,0.000000,,2013-07-06 08:43:00,
2013-07-06 03:54:00,77.0,63.0,29.98,NNE,13,0.0,-999.0,61,-99.99,,,-99.99,0.000000,,2013-07-06 08:54:00,
2013-07-06 04:02:00,77.0,63.0,29.98,NNE,13,0.0,-999.0,61,-99.99,,,-99.99,0.000000,,2013-07-06 09:02:00,
2013-07-06 04:11:00,77.0,63.0,29.98,NNE,14,0.0,-999.0,61,-99.99,,,-99.99,0.000000,,2013-07-06 09:11:00,
2013-07-06 04:22:00,77.0,63.0,29.98,NNE,13,0.0,-999.0,62,-99.99,,,-99.99,0.000000,,2013-07-06 09:22:00,
2013-07-06 04:33:00,77.0,63.0,29.98,NNE,13,0.0,-999.0,63,-99.99,,,-99.99,0.000000,,2013-07-06 09:33:00,
2013-07-06 04:43:00,77.0,63.0,29.98,NNE,15,0.0,-999.0,63,-99.99,,,-99.99,0.000000,,2013-07-06 09:43:00,
2013-07-06 04:52:00,77.0,64.0,29.98,NNE,13,1.0,-999.0,64,-99.99,,,-99.99,0.000000,,2013-07-06 09:52:00,
2013-07-06 05:02:00,76.0,63.0,29.98,NNE,13,1.0,-999.0,65,-99.99,,,-99.99,0.000000,,2013-07-06 10:02:00,
2013-07-06 05:11:00,76.0,64.0,29.98,NNE,17,1.0,-999.0,66,-99.99,,,-99.99,0.000000,,2013-07-06 10:11:00,
2013-07-06 05:22:00,76.0,64.0,29.98,NNE,20,1.0,-999.0,67,-99.99,,,-99.99,0.000000,,2013-07-06 10:22:00,
2013-07-06 05:33:00,76.0,65.0,29.97,North,5,2.0,-999.0,68,-99.99,,,-99.99,0.000000,,2013-07-06 10:33:00,
2013-07-06 05:42:00,76.0,65.0,29.98,North,6,2.0,-999.0,69,-99.99,,,-99.99,0.000000,,2013-07-06 10:42:00,
2013-07-06 05:53:00,76.0,65.0,29.98,North,6,0.0,-999.0,69,-99.99,,,-99.99,0.000000,,2013-07-06 10:53:00,
2013-07-06 06:01:00,75.0,65.0,29.98,North,4,1.0,-999.0,70,-99.99,,,-99.99,0.000000,,2013-07-06 11:01:00,
2013-07-06 06:11:00,75.0,65.0,29.98,North,5,0.0,-999.0,71,-99.99,,,-99.99,0.000000,,2013-07-06 11:11:00,
2013-07-06 06:22:00,75.0,65.0,29.98,North,3,0.0,-999.0,71,-99.99,,,-99.99,0.000000,,2013-07-06 11:22:00,
2013-07-06 06:33:00,75.0,65.0,29.98,North,2,0.0,-999.0,72,-99.99,,,-99.99,0.000000,,2013-07-06 11:33:00,
2013-07-06 06:42:00,74.0,64.0,29.98,North,5,0.0,-999.0,72,-99.99,,,-99.99,5.000000,,2013-07-06 11:42:00,
2013-07-06 06:53:00,74.0,65.0,29.98,North,4,0.0,-999.0,73,-99.99,,,-99.99,12.000000,,2013-07-06 11:53:00,
2013-07-06 07:01:00,74.0,65.0,29.99,North,6,0.0,-999.0,74,-99.99,,,-99.99,18.000000,,2013-07-06 12:01:00,
2013-07-06 07:11:00,74.0,65.0,29.99,North,2,0.0,-999.0,74,-99.99,,,-99.99,23.000000,,2013-07-06 12:11:00,
2013-07-06 07:22:00,74.0,66.0,29.99,North,7,0.0,-999.0,75,-99.99,,,-99.99,28.000000,,2013-07-06 12:22:00,
2013-07-06 07:33:00,74.0,66.0,29.99,North,4,0.0,-999.0,75,-99.99,,,-99.99,33.000000,,2013-07-06 12:33:00,
2013-07-06 07:43:00,74.0,66.0,29.99,North,5,0.0,-999.0,76,-99.99,,,-99.99,39.000000,,2013-07-06 12:43:00,
2013-07-06 07:52:00,74.0,66.0,29.99,North,4,0.0,-999.0,76,-99.99,,,-99.99,42.000000,,2013-07-06 12:52:00,
2013-07-06 08:01:00,74.0,66.0,29.99,North,3,0.0,-999.0,77,-99.99,,,-99.99,46.000000,,2013-07-06 13:01:00,
2013-07-06 08:12:00,74.0,66.0,29.99,North,5,0.0,-999.0,77,-99.99,,,-99.99,47.000000,,2013-07-06 13:12:00,
2013-07-06 08:22:00,75.0,68.0,30.00,North,3,0.0,-999.0,78,-99.99,,,-99.99,53.000000,,2013-07-06 13:22:00,
2013-07-06 08:33:00,75.0,68.0,30.00,North,1,1.0,-999.0,78,-99.99,,,-99.99,56.000000,,2013-07-06 13:33:00,
2013-07-06 08:43:00,75.0,68.0,30.00,North,1,1.0,-999.0,78,-99.99,,,-99.99,56.000000,,2013-07-06 13:43:00,
2013-07-06 08:52:00,75.0,68.0,30.00,North,1,1.0,-999.0,78,-99.99,,,-99.99,56.000000,,2013-07-06 13:52:00,
2013-07-06 09:02:00,75.0,68.0,30.00,North,1,1.0,-999.0,78,-99.99,,,-99.99,56.000000,,2013-07-06 14:02:00,
2013-07-06 09:11:00,75.0,68.0,30.00,North,1,1.0,-999.0,78,-99.99,,,-99.99,56.000000,,2013-07-06 14:11:00,
2013-07-06 11:15:00,84.0,75.0,30.00,North,360,1.0,-999.0,74,-99.99,,,-99.99,104.000000,,2013-07-06 16:15:00,
2013-07-06 11:24:00,84.0,74.0,30.00,North,360,1.0,-999.0,73,-99.99,,,-99.99,105.000000,,2013-07-06 16:24:00,
2013-07-06 11:51:00,85.0,75.0,30.00,North,360,0.0,-999.0,71,-99.99,,,-99.99,120.000000,,2013-07-06 16:51:00,
2013-07-06 12:08:00,86.0,74.0,29.99,North,360,1.0,-999.0,68,-99.99,,,-99.99,146.000000,,2013-07-06 17:08:00,
2013-07-06 12:19:00,86.0,74.0,29.99,North,2,2.0,-999.0,67,-99.99,,,-99.99,171.000000,,2013-07-06 17:19:00,
2013-07-06 12:57:00,87.0,73.0,29.99,North,2,1.0,-999.0,64,-99.99,,,-99.99,860.000000,,2013-07-06 17:57:00,
2013-07-06 13:08:00,87.0,73.0,29.99,North,2,1.0,-999.0,64,-99.99,,,-99.99,860.000000,,2013-07-06 18:08:00,